owner,sensor,date,latitude,longitude,air_pressure(mBar),qcFlag 
WAVCIS,ioos:station:WAVCIS:CSI09:1,2009-01-01T00:00:00Z,29.1015,-89.9782,1020.37,11111222 
WAVCIS,ioos:station:WAVCIS:CSI09:1,2009-01-01T01:00:00Z,29.1015,-89.9782,1021.06,11111222 
WAVCIS,ioos:station:WAVCIS:CSI09:1,2009-01-01T02:00:00Z,29.1015,-89.9782,1021.4,11111222 
WAVCIS,ioos:station:WAVCIS:CSI09:1,2009-01-01T03:00:00Z,29.1015,-89.9782,1021.67,11111222 
WAVCIS,ioos:station:WAVCIS:CSI09:1,2009-01-01T04:00:00Z,29.1015,-89.9782,1021.23,11111222 
WAVCIS,ioos:station:WAVCIS:CSI09:1,2009-01-01T05:00:00Z,29.1015,-89.9782,1020.91,11111222 
WAVCIS,ioos:station:WAVCIS:CSI09:1,2009-01-01T06:00:00Z,29.1015,-89.9782,1020.6,11111222 
WAVCIS,ioos:station:WAVCIS:CSI09:1,2009-01-01T07:00:00Z,29.1015,-89.9782,1020.22,11111222 
WAVCIS,ioos:station:WAVCIS:CSI09:1,2009-01-01T08:00:00Z,29.1015,-89.9782,1019.83,11111222 
WAVCIS,ioos:station:WAVCIS:CSI09:1,2009-01-01T09:00:00Z,29.1015,-89.9782,1019.15,11111222 
WAVCIS,ioos:station:WAVCIS:CSI09:1,2009-01-01T10:00:00Z,29.1015,-89.9782,1018.67,11111222 
WAVCIS,ioos:station:WAVCIS:CSI09:1,2009-01-01T11:00:00Z,29.1015,-89.9782,1019.0,11111222 
WAVCIS,ioos:station:WAVCIS:CSI09:1,2009-01-01T12:00:00Z,29.1015,-89.9782,1019.09,11111222 
WAVCIS,ioos:station:WAVCIS:CSI09:1,2009-01-01T13:00:00Z,29.1015,-89.9782,1019.49,11111222 
WAVCIS,ioos:station:WAVCIS:CSI09:1,2009-01-01T14:00:00Z,29.1015,-89.9782,1019.33,11111222 
WAVCIS,ioos:station:WAVCIS:CSI09:1,2009-01-01T15:00:00Z,29.1015,-89.9782,1020.2,11111222 
WAVCIS,ioos:station:WAVCIS:CSI09:1,2009-01-01T16:00:00Z,29.1015,-89.9782,1019.67,11111222 
WAVCIS,ioos:station:WAVCIS:CSI09:1,2009-01-01T17:00:00Z,29.1015,-89.9782,1019.46,11111222 
WAVCIS,ioos:station:WAVCIS:CSI09:1,2009-01-01T18:00:00Z,29.1015,-89.9782,1018.48,11111222 
WAVCIS,ioos:station:WAVCIS:CSI09:1,2009-01-01T19:00:00Z,29.1015,-89.9782,1017.71,11111222 
WAVCIS,ioos:station:WAVCIS:CSI09:1,2009-01-01T20:00:00Z,29.1015,-89.9782,1017.03,11111222 
WAVCIS,ioos:station:WAVCIS:CSI09:1,2009-01-01T21:00:00Z,29.1015,-89.9782,1016.73,11111222 
WAVCIS,ioos:station:WAVCIS:CSI09:1,2009-01-01T22:00:00Z,29.1015,-89.9782,1017.29,11111222 
WAVCIS,ioos:station:WAVCIS:CSI09:1,2009-01-01T23:00:00Z,29.1015,-89.9782,1017.21,11111222 
WAVCIS,ioos:station:WAVCIS:CSI09:1,2009-01-02T00:00:00Z,29.1015,-89.9782,1016.83,11111222 
WAVCIS,ioos:station:WAVCIS:CSI09:1,2009-01-02T01:00:00Z,29.1015,-89.9782,1016.11,11111222 
WAVCIS,ioos:station:WAVCIS:CSI09:1,2009-01-02T02:00:00Z,29.1015,-89.9782,1015.97,11111222 
WAVCIS,ioos:station:WAVCIS:CSI09:1,2009-01-02T03:00:00Z,29.1015,-89.9782,1015.87,11111222 
WAVCIS,ioos:station:WAVCIS:CSI09:1,2009-01-02T04:00:00Z,29.1015,-89.9782,1015.73,11111222 
WAVCIS,ioos:station:WAVCIS:CSI09:1,2009-01-02T05:00:00Z,29.1015,-89.9782,1015.0,11111222 
WAVCIS,ioos:station:WAVCIS:CSI09:1,2009-01-02T06:00:00Z,29.1015,-89.9782,1014.52,11111222 
WAVCIS,ioos:station:WAVCIS:CSI09:1,2009-01-02T07:00:00Z,29.1015,-89.9782,1014.1,11111222 
WAVCIS,ioos:station:WAVCIS:CSI09:1,2009-01-02T08:00:00Z,29.1015,-89.9782,1014.19,11111222 
WAVCIS,ioos:station:WAVCIS:CSI09:1,2009-01-02T09:00:00Z,29.1015,-89.9782,1014.42,11111222 
WAVCIS,ioos:station:WAVCIS:CSI09:1,2009-01-02T10:00:00Z,29.1015,-89.9782,1014.85,11111222 
WAVCIS,ioos:station:WAVCIS:CSI09:1,2009-01-02T11:00:00Z,29.1015,-89.9782,1014.95,11111222 
WAVCIS,ioos:station:WAVCIS:CSI09:1,2009-01-02T12:00:00Z,29.1015,-89.9782,1014.91,11111222 
WAVCIS,ioos:station:WAVCIS:CSI09:1,2009-01-02T13:00:00Z,29.1015,-89.9782,1015.15,11111222 
WAVCIS,ioos:station:WAVCIS:CSI09:1,2009-01-02T14:00:00Z,29.1015,-89.9782,1015.58,11111222 
WAVCIS,ioos:station:WAVCIS:CSI09:1,2009-01-02T15:00:00Z,29.1015,-89.9782,1016.12,11111222 
WAVCIS,ioos:station:WAVCIS:CSI09:1,2009-01-02T16:00:00Z,29.1015,-89.9782,1016.22,11111222 
WAVCIS,ioos:station:WAVCIS:CSI09:1,2009-01-02T17:00:00Z,29.1015,-89.9782,1016.09,11111222 
WAVCIS,ioos:station:WAVCIS:CSI09:1,2009-01-02T18:00:00Z,29.1015,-89.9782,1014.98,11111222 
WAVCIS,ioos:station:WAVCIS:CSI09:1,2009-01-02T19:00:00Z,29.1015,-89.9782,1014.13,11111222 
WAVCIS,ioos:station:WAVCIS:CSI09:1,2009-01-02T20:00:00Z,29.1015,-89.9782,1013.97,11111222 
WAVCIS,ioos:station:WAVCIS:CSI09:1,2009-01-02T21:00:00Z,29.1015,-89.9782,1013.69,11111222 
WAVCIS,ioos:station:WAVCIS:CSI09:1,2009-01-02T22:00:00Z,29.1015,-89.9782,1013.91,11111222 
WAVCIS,ioos:station:WAVCIS:CSI09:1,2009-01-02T23:00:00Z,29.1015,-89.9782,1013.79,11111222 
WAVCIS,ioos:station:WAVCIS:CSI09:1,2009-01-03T00:00:00Z,29.1015,-89.9782,1014.24,11111222 
WAVCIS,ioos:station:WAVCIS:CSI09:1,2009-01-03T01:00:00Z,29.1015,-89.9782,1014.45,11111222 
WAVCIS,ioos:station:WAVCIS:CSI09:1,2009-01-03T02:00:00Z,29.1015,-89.9782,1014.8,11111222 
WAVCIS,ioos:station:WAVCIS:CSI09:1,2009-01-03T03:00:00Z,29.1015,-89.9782,1014.99,11111222 
WAVCIS,ioos:station:WAVCIS:CSI09:1,2009-01-03T04:00:00Z,29.1015,-89.9782,1014.8,11111222 
WAVCIS,ioos:station:WAVCIS:CSI09:1,2009-01-03T05:00:00Z,29.1015,-89.9782,1014.37,11111222 
WAVCIS,ioos:station:WAVCIS:CSI09:1,2009-01-03T06:00:00Z,29.1015,-89.9782,1014.04,11111222 
WAVCIS,ioos:station:WAVCIS:CSI09:1,2009-01-03T07:00:00Z,29.1015,-89.9782,1013.74,11111222 
WAVCIS,ioos:station:WAVCIS:CSI09:1,2009-01-03T08:00:00Z,29.1015,-89.9782,1013.76,11111222 
WAVCIS,ioos:station:WAVCIS:CSI09:1,2009-01-03T09:00:00Z,29.1015,-89.9782,1013.32,11111222 
WAVCIS,ioos:station:WAVCIS:CSI09:1,2009-01-03T10:00:00Z,29.1015,-89.9782,1013.29,11111222 
WAVCIS,ioos:station:WAVCIS:CSI09:1,2009-01-03T11:00:00Z,29.1015,-89.9782,1013.38,11111222 
WAVCIS,ioos:station:WAVCIS:CSI09:1,2009-01-03T12:00:00Z,29.1015,-89.9782,1013.38,11111222 
WAVCIS,ioos:station:WAVCIS:CSI09:1,2009-01-03T13:00:00Z,29.1015,-89.9782,1014.15,11111222 
WAVCIS,ioos:station:WAVCIS:CSI09:1,2009-01-03T14:00:00Z,29.1015,-89.9782,1014.78,11111222 
WAVCIS,ioos:station:WAVCIS:CSI09:1,2009-01-03T15:00:00Z,29.1015,-89.9782,1015.44,11111222 
WAVCIS,ioos:station:WAVCIS:CSI09:1,2009-01-03T16:00:00Z,29.1015,-89.9782,1015.65,11111222 
WAVCIS,ioos:station:WAVCIS:CSI09:1,2009-01-03T17:00:00Z,29.1015,-89.9782,1014.96,11111222 
WAVCIS,ioos:station:WAVCIS:CSI09:1,2009-01-03T18:00:00Z,29.1015,-89.9782,1013.7,11111222 
WAVCIS,ioos:station:WAVCIS:CSI09:1,2009-01-03T19:00:00Z,29.1015,-89.9782,1012.88,11111222 
WAVCIS,ioos:station:WAVCIS:CSI09:1,2009-01-03T20:00:00Z,29.1015,-89.9782,1012.5,11111222 
WAVCIS,ioos:station:WAVCIS:CSI09:1,2009-01-03T21:00:00Z,29.1015,-89.9782,1012.71,11111222 
WAVCIS,ioos:station:WAVCIS:CSI09:1,2009-01-03T22:00:00Z,29.1015,-89.9782,1011.49,11111222 
WAVCIS,ioos:station:WAVCIS:CSI09:1,2009-01-03T23:00:00Z,29.1015,-89.9782,1012.04,11111222 
WAVCIS,ioos:station:WAVCIS:CSI09:1,2009-01-04T00:00:00Z,29.1015,-89.9782,1012.41,11111222 
WAVCIS,ioos:station:WAVCIS:CSI09:1,2009-01-04T01:00:00Z,29.1015,-89.9782,1012.45,11111222 
WAVCIS,ioos:station:WAVCIS:CSI09:1,2009-01-04T02:00:00Z,29.1015,-89.9782,1012.71,11111222 
WAVCIS,ioos:station:WAVCIS:CSI09:1,2009-01-04T03:00:00Z,29.1015,-89.9782,1013.25,11111222 
WAVCIS,ioos:station:WAVCIS:CSI09:1,2009-01-04T04:00:00Z,29.1015,-89.9782,1013.51,11111222 
WAVCIS,ioos:station:WAVCIS:CSI09:1,2009-01-04T05:00:00Z,29.1015,-89.9782,1013.74,11111222 
WAVCIS,ioos:station:WAVCIS:CSI09:1,2009-01-04T06:00:00Z,29.1015,-89.9782,1014.26,11111222 
WAVCIS,ioos:station:WAVCIS:CSI09:1,2009-01-04T07:00:00Z,29.1015,-89.9782,1014.18,11111222 
WAVCIS,ioos:station:WAVCIS:CSI09:1,2009-01-04T08:00:00Z,29.1015,-89.9782,1014.04,11111222 
WAVCIS,ioos:station:WAVCIS:CSI09:1,2009-01-04T09:00:00Z,29.1015,-89.9782,1014.04,11111222 
WAVCIS,ioos:station:WAVCIS:CSI09:1,2009-01-04T10:00:00Z,29.1015,-89.9782,1013.92,11111222 
WAVCIS,ioos:station:WAVCIS:CSI09:1,2009-01-04T11:00:00Z,29.1015,-89.9782,1014.31,11111222 
WAVCIS,ioos:station:WAVCIS:CSI09:1,2009-01-04T12:00:00Z,29.1015,-89.9782,1015.04,11111222 
WAVCIS,ioos:station:WAVCIS:CSI09:1,2009-01-04T13:00:00Z,29.1015,-89.9782,1016.17,11111222 
WAVCIS,ioos:station:WAVCIS:CSI09:1,2009-01-04T14:00:00Z,29.1015,-89.9782,1016.85,11111222 
WAVCIS,ioos:station:WAVCIS:CSI09:1,2009-01-04T15:00:00Z,29.1015,-89.9782,1017.46,11111222 
WAVCIS,ioos:station:WAVCIS:CSI09:1,2009-01-04T16:00:00Z,29.1015,-89.9782,1018.11,11111222 
WAVCIS,ioos:station:WAVCIS:CSI09:1,2009-01-04T17:00:00Z,29.1015,-89.9782,1017.9,11111222 
WAVCIS,ioos:station:WAVCIS:CSI09:1,2009-01-04T18:00:00Z,29.1015,-89.9782,1017.59,11111222 
WAVCIS,ioos:station:WAVCIS:CSI09:1,2009-01-04T19:00:00Z,29.1015,-89.9782,1017.1,11111222 
WAVCIS,ioos:station:WAVCIS:CSI09:1,2009-01-04T20:00:00Z,29.1015,-89.9782,1016.86,11111222 
WAVCIS,ioos:station:WAVCIS:CSI09:1,2009-01-04T21:00:00Z,29.1015,-89.9782,1016.78,11111222 
WAVCIS,ioos:station:WAVCIS:CSI09:1,2009-01-04T22:00:00Z,29.1015,-89.9782,1016.88,11111222 
WAVCIS,ioos:station:WAVCIS:CSI09:1,2009-01-04T23:00:00Z,29.1015,-89.9782,1017.21,11111222 
WAVCIS,ioos:station:WAVCIS:CSI09:1,2009-01-05T00:00:00Z,29.1015,-89.9782,1017.42,11111222 
WAVCIS,ioos:station:WAVCIS:CSI09:1,2009-01-05T01:00:00Z,29.1015,-89.9782,1017.89,11111222 
WAVCIS,ioos:station:WAVCIS:CSI09:1,2009-01-05T02:00:00Z,29.1015,-89.9782,1018.42,11111222 
WAVCIS,ioos:station:WAVCIS:CSI09:1,2009-01-05T03:00:00Z,29.1015,-89.9782,1018.65,11111222 
WAVCIS,ioos:station:WAVCIS:CSI09:1,2009-01-05T04:00:00Z,29.1015,-89.9782,1018.67,11111222 
WAVCIS,ioos:station:WAVCIS:CSI09:1,2009-01-05T05:00:00Z,29.1015,-89.9782,1018.5,11111222 
WAVCIS,ioos:station:WAVCIS:CSI09:1,2009-01-05T06:00:00Z,29.1015,-89.9782,1018.3,11111222 
WAVCIS,ioos:station:WAVCIS:CSI09:1,2009-01-05T07:00:00Z,29.1015,-89.9782,1018.22,11111222 
WAVCIS,ioos:station:WAVCIS:CSI09:1,2009-01-05T08:00:00Z,29.1015,-89.9782,1018.14,11111222 
WAVCIS,ioos:station:WAVCIS:CSI09:1,2009-01-05T09:00:00Z,29.1015,-89.9782,1017.87,11111222 
WAVCIS,ioos:station:WAVCIS:CSI09:1,2009-01-05T10:00:00Z,29.1015,-89.9782,1017.61,11111222 
WAVCIS,ioos:station:WAVCIS:CSI09:1,2009-01-05T11:00:00Z,29.1015,-89.9782,1017.45,11111222 
WAVCIS,ioos:station:WAVCIS:CSI09:1,2009-01-05T12:00:00Z,29.1015,-89.9782,1017.62,11111222 
WAVCIS,ioos:station:WAVCIS:CSI09:1,2009-01-05T13:00:00Z,29.1015,-89.9782,1017.9,11111222 
WAVCIS,ioos:station:WAVCIS:CSI09:1,2009-01-05T14:00:00Z,29.1015,-89.9782,1018.36,11111222 
WAVCIS,ioos:station:WAVCIS:CSI09:1,2009-01-05T15:00:00Z,29.1015,-89.9782,1018.33,11111222 
WAVCIS,ioos:station:WAVCIS:CSI09:1,2009-01-05T16:00:00Z,29.1015,-89.9782,1018.45,11111222 
WAVCIS,ioos:station:WAVCIS:CSI09:1,2009-01-05T17:00:00Z,29.1015,-89.9782,1017.9,11111222 
WAVCIS,ioos:station:WAVCIS:CSI09:1,2009-01-05T18:00:00Z,29.1015,-89.9782,1016.65,11111222 
WAVCIS,ioos:station:WAVCIS:CSI09:1,2009-01-05T19:00:00Z,29.1015,-89.9782,1015.48,11111222 
WAVCIS,ioos:station:WAVCIS:CSI09:1,2009-01-05T20:00:00Z,29.1015,-89.9782,1015.09,11111222 
WAVCIS,ioos:station:WAVCIS:CSI09:1,2009-01-05T21:00:00Z,29.1015,-89.9782,1014.2,11111222 
WAVCIS,ioos:station:WAVCIS:CSI09:1,2009-01-05T22:00:00Z,29.1015,-89.9782,1013.5,11111222 
WAVCIS,ioos:station:WAVCIS:CSI09:1,2009-01-05T23:00:00Z,29.1015,-89.9782,1012.97,11111222 
WAVCIS,ioos:station:WAVCIS:CSI09:1,2009-01-06T00:00:00Z,29.1015,-89.9782,1012.9,11111222 
WAVCIS,ioos:station:WAVCIS:CSI09:1,2009-01-06T01:00:00Z,29.1015,-89.9782,1013.41,11111222 
WAVCIS,ioos:station:WAVCIS:CSI09:1,2009-01-06T02:00:00Z,29.1015,-89.9782,1013.19,11111222 
WAVCIS,ioos:station:WAVCIS:CSI09:1,2009-01-06T03:00:00Z,29.1015,-89.9782,1012.88,11111222 
WAVCIS,ioos:station:WAVCIS:CSI09:1,2009-01-06T04:00:00Z,29.1015,-89.9782,1012.78,11111222 
WAVCIS,ioos:station:WAVCIS:CSI09:1,2009-01-06T05:00:00Z,29.1015,-89.9782,1012.25,11111222 
WAVCIS,ioos:station:WAVCIS:CSI09:1,2009-01-06T06:00:00Z,29.1015,-89.9782,1011.54,11111222 
WAVCIS,ioos:station:WAVCIS:CSI09:1,2009-01-06T07:00:00Z,29.1015,-89.9782,1010.79,11111222 
WAVCIS,ioos:station:WAVCIS:CSI09:1,2009-01-06T08:00:00Z,29.1015,-89.9782,1010.44,11111222 
WAVCIS,ioos:station:WAVCIS:CSI09:1,2009-01-06T09:00:00Z,29.1015,-89.9782,1009.96,11111222 
WAVCIS,ioos:station:WAVCIS:CSI09:1,2009-01-06T10:00:00Z,29.1015,-89.9782,1009.31,11111222 
WAVCIS,ioos:station:WAVCIS:CSI09:1,2009-01-06T11:00:00Z,29.1015,-89.9782,1008.75,11111222 
WAVCIS,ioos:station:WAVCIS:CSI09:1,2009-01-06T12:00:00Z,29.1015,-89.9782,1009.07,11111222 
WAVCIS,ioos:station:WAVCIS:CSI09:1,2009-01-06T13:00:00Z,29.1015,-89.9782,1009.01,11111222 
WAVCIS,ioos:station:WAVCIS:CSI09:1,2009-01-06T14:00:00Z,29.1015,-89.9782,1009.11,11111222 
WAVCIS,ioos:station:WAVCIS:CSI09:1,2009-01-06T15:00:00Z,29.1015,-89.9782,1009.15,11111222 
WAVCIS,ioos:station:WAVCIS:CSI09:1,2009-01-06T16:00:00Z,29.1015,-89.9782,1009.6,11111222 
WAVCIS,ioos:station:WAVCIS:CSI09:1,2009-01-06T17:00:00Z,29.1015,-89.9782,1008.67,11111222 
WAVCIS,ioos:station:WAVCIS:CSI09:1,2009-01-06T18:00:00Z,29.1015,-89.9782,1006.904,11111222 
WAVCIS,ioos:station:WAVCIS:CSI09:1,2009-01-06T19:00:00Z,29.1015,-89.9782,1005.51,11111222 
WAVCIS,ioos:station:WAVCIS:CSI09:1,2009-01-06T20:00:00Z,29.1015,-89.9782,1004.546,11111222 
WAVCIS,ioos:station:WAVCIS:CSI09:1,2009-01-06T21:00:00Z,29.1015,-89.9782,1004.271,11111222 
WAVCIS,ioos:station:WAVCIS:CSI09:1,2009-01-06T22:00:00Z,29.1015,-89.9782,1003.921,11111222 
WAVCIS,ioos:station:WAVCIS:CSI09:1,2009-01-06T23:00:00Z,29.1015,-89.9782,1003.683,11111222 
WAVCIS,ioos:station:WAVCIS:CSI09:1,2009-01-07T00:00:00Z,29.1015,-89.9782,1003.585,11111222 
WAVCIS,ioos:station:WAVCIS:CSI09:1,2009-01-07T01:00:00Z,29.1015,-89.9782,1003.798,11111222 
WAVCIS,ioos:station:WAVCIS:CSI09:1,2009-01-07T02:00:00Z,29.1015,-89.9782,1004.487,11111222 
WAVCIS,ioos:station:WAVCIS:CSI09:1,2009-01-07T03:00:00Z,29.1015,-89.9782,1005.306,11111222 
WAVCIS,ioos:station:WAVCIS:CSI09:1,2009-01-07T04:00:00Z,29.1015,-89.9782,1005.892,11111222 
WAVCIS,ioos:station:WAVCIS:CSI09:1,2009-01-07T05:00:00Z,29.1015,-89.9782,1006.816,11111222 
WAVCIS,ioos:station:WAVCIS:CSI09:1,2009-01-07T06:00:00Z,29.1015,-89.9782,1007.36,11111222 
WAVCIS,ioos:station:WAVCIS:CSI09:1,2009-01-07T07:00:00Z,29.1015,-89.9782,1007.52,11111222 
WAVCIS,ioos:station:WAVCIS:CSI09:1,2009-01-07T08:00:00Z,29.1015,-89.9782,1007.3,11111222 
WAVCIS,ioos:station:WAVCIS:CSI09:1,2009-01-07T09:00:00Z,29.1015,-89.9782,1007.78,11111222 
WAVCIS,ioos:station:WAVCIS:CSI09:1,2009-01-07T10:00:00Z,29.1015,-89.9782,1008.16,11111222 
WAVCIS,ioos:station:WAVCIS:CSI09:1,2009-01-07T11:00:00Z,29.1015,-89.9782,1008.89,11111222 
WAVCIS,ioos:station:WAVCIS:CSI09:1,2009-01-07T12:00:00Z,29.1015,-89.9782,1009.78,11111222 
WAVCIS,ioos:station:WAVCIS:CSI09:1,2009-01-07T13:00:00Z,29.1015,-89.9782,1010.84,11111222 
WAVCIS,ioos:station:WAVCIS:CSI09:1,2009-01-07T14:00:00Z,29.1015,-89.9782,1012.57,11111222 
WAVCIS,ioos:station:WAVCIS:CSI09:1,2009-01-07T15:00:00Z,29.1015,-89.9782,1013.59,11111222 
WAVCIS,ioos:station:WAVCIS:CSI09:1,2009-01-07T16:00:00Z,29.1015,-89.9782,1014.26,11111222 
WAVCIS,ioos:station:WAVCIS:CSI09:1,2009-01-07T17:00:00Z,29.1015,-89.9782,1013.36,11111222 
WAVCIS,ioos:station:WAVCIS:CSI09:1,2009-01-07T18:00:00Z,29.1015,-89.9782,1012.41,11111222 
WAVCIS,ioos:station:WAVCIS:CSI09:1,2009-01-07T19:00:00Z,29.1015,-89.9782,1011.55,11111222 
WAVCIS,ioos:station:WAVCIS:CSI09:1,2009-01-07T20:00:00Z,29.1015,-89.9782,1011.26,11111222 
WAVCIS,ioos:station:WAVCIS:CSI09:1,2009-01-07T21:00:00Z,29.1015,-89.9782,1011.13,11111222 
WAVCIS,ioos:station:WAVCIS:CSI09:1,2009-01-07T22:00:00Z,29.1015,-89.9782,1011.7,11111222 
WAVCIS,ioos:station:WAVCIS:CSI09:1,2009-01-07T23:00:00Z,29.1015,-89.9782,1011.94,11111222 
WAVCIS,ioos:station:WAVCIS:CSI09:1,2009-01-08T00:00:00Z,29.1015,-89.9782,1012.2,11111222 
WAVCIS,ioos:station:WAVCIS:CSI09:1,2009-01-08T01:00:00Z,29.1015,-89.9782,1012.65,11111222 
WAVCIS,ioos:station:WAVCIS:CSI09:1,2009-01-08T02:00:00Z,29.1015,-89.9782,1013.29,11111222 
WAVCIS,ioos:station:WAVCIS:CSI09:1,2009-01-08T03:00:00Z,29.1015,-89.9782,1013.4,11111222 
WAVCIS,ioos:station:WAVCIS:CSI09:1,2009-01-08T04:00:00Z,29.1015,-89.9782,1013.89,11111222 
WAVCIS,ioos:station:WAVCIS:CSI09:1,2009-01-08T05:00:00Z,29.1015,-89.9782,1013.72,11111222 
WAVCIS,ioos:station:WAVCIS:CSI09:1,2009-01-08T06:00:00Z,29.1015,-89.9782,1013.79,11111222 
WAVCIS,ioos:station:WAVCIS:CSI09:1,2009-01-08T07:00:00Z,29.1015,-89.9782,1013.21,11111222 
WAVCIS,ioos:station:WAVCIS:CSI09:1,2009-01-08T08:00:00Z,29.1015,-89.9782,1013.45,11111222 
WAVCIS,ioos:station:WAVCIS:CSI09:1,2009-01-08T09:00:00Z,29.1015,-89.9782,1013.23,11111222 
WAVCIS,ioos:station:WAVCIS:CSI09:1,2009-01-08T10:00:00Z,29.1015,-89.9782,1013.15,11111222 
WAVCIS,ioos:station:WAVCIS:CSI09:1,2009-01-08T11:00:00Z,29.1015,-89.9782,1013.29,11111222 
WAVCIS,ioos:station:WAVCIS:CSI09:1,2009-01-08T12:00:00Z,29.1015,-89.9782,1013.76,11111222 
WAVCIS,ioos:station:WAVCIS:CSI09:1,2009-01-08T13:00:00Z,29.1015,-89.9782,1014.32,11111222 
WAVCIS,ioos:station:WAVCIS:CSI09:1,2009-01-08T14:00:00Z,29.1015,-89.9782,1015.32,11111222 
WAVCIS,ioos:station:WAVCIS:CSI09:1,2009-01-08T15:00:00Z,29.1015,-89.9782,1015.92,11111222 
WAVCIS,ioos:station:WAVCIS:CSI09:1,2009-01-08T16:00:00Z,29.1015,-89.9782,1016.26,11111222 
WAVCIS,ioos:station:WAVCIS:CSI09:1,2009-01-08T17:00:00Z,29.1015,-89.9782,1015.99,11111222 
WAVCIS,ioos:station:WAVCIS:CSI09:1,2009-01-08T18:00:00Z,29.1015,-89.9782,1015.13,11111222 
WAVCIS,ioos:station:WAVCIS:CSI09:1,2009-01-08T19:00:00Z,29.1015,-89.9782,1014.33,11111222 
WAVCIS,ioos:station:WAVCIS:CSI09:1,2009-01-08T20:00:00Z,29.1015,-89.9782,1014.24,11111222 
WAVCIS,ioos:station:WAVCIS:CSI09:1,2009-01-08T21:00:00Z,29.1015,-89.9782,1014.18,11111222 
WAVCIS,ioos:station:WAVCIS:CSI09:1,2009-01-08T22:00:00Z,29.1015,-89.9782,1014.52,11111222 
WAVCIS,ioos:station:WAVCIS:CSI09:1,2009-01-08T23:00:00Z,29.1015,-89.9782,1014.65,11111222 
WAVCIS,ioos:station:WAVCIS:CSI09:1,2009-01-09T00:00:00Z,29.1015,-89.9782,1015.06,11111222 
WAVCIS,ioos:station:WAVCIS:CSI09:1,2009-01-09T01:00:00Z,29.1015,-89.9782,1015.68,11111222 
WAVCIS,ioos:station:WAVCIS:CSI09:1,2009-01-09T02:00:00Z,29.1015,-89.9782,1016.23,11111222 
WAVCIS,ioos:station:WAVCIS:CSI09:1,2009-01-09T03:00:00Z,29.1015,-89.9782,1016.76,11111222 
WAVCIS,ioos:station:WAVCIS:CSI09:1,2009-01-09T04:00:00Z,29.1015,-89.9782,1017.01,11111222 
WAVCIS,ioos:station:WAVCIS:CSI09:1,2009-01-09T05:00:00Z,29.1015,-89.9782,1017.15,11111222 
WAVCIS,ioos:station:WAVCIS:CSI09:1,2009-01-09T06:00:00Z,29.1015,-89.9782,1016.86,11111222 
WAVCIS,ioos:station:WAVCIS:CSI09:1,2009-01-09T07:00:00Z,29.1015,-89.9782,1016.63,11111222 
WAVCIS,ioos:station:WAVCIS:CSI09:1,2009-01-09T08:00:00Z,29.1015,-89.9782,1016.72,11111222 
WAVCIS,ioos:station:WAVCIS:CSI09:1,2009-01-09T09:00:00Z,29.1015,-89.9782,1016.9,11111222 
WAVCIS,ioos:station:WAVCIS:CSI09:1,2009-01-09T10:00:00Z,29.1015,-89.9782,1017.18,11111222 
WAVCIS,ioos:station:WAVCIS:CSI09:1,2009-01-09T11:00:00Z,29.1015,-89.9782,1017.42,11111222 
WAVCIS,ioos:station:WAVCIS:CSI09:1,2009-01-09T12:00:00Z,29.1015,-89.9782,1017.46,11111222 
WAVCIS,ioos:station:WAVCIS:CSI09:1,2009-01-09T13:00:00Z,29.1015,-89.9782,1018.08,11111222 
WAVCIS,ioos:station:WAVCIS:CSI09:1,2009-01-09T14:00:00Z,29.1015,-89.9782,1018.7,11111222 
WAVCIS,ioos:station:WAVCIS:CSI09:1,2009-01-09T15:00:00Z,29.1015,-89.9782,1019.54,11111222 
WAVCIS,ioos:station:WAVCIS:CSI09:1,2009-01-09T16:00:00Z,29.1015,-89.9782,1019.92,11111222 
WAVCIS,ioos:station:WAVCIS:CSI09:1,2009-01-09T17:00:00Z,29.1015,-89.9782,1019.51,11111222 
WAVCIS,ioos:station:WAVCIS:CSI09:1,2009-01-09T18:00:00Z,29.1015,-89.9782,1018.64,11111222 
WAVCIS,ioos:station:WAVCIS:CSI09:1,2009-01-09T19:00:00Z,29.1015,-89.9782,1017.67,11111222 
WAVCIS,ioos:station:WAVCIS:CSI09:1,2009-01-09T20:00:00Z,29.1015,-89.9782,1017.31,11111222 
WAVCIS,ioos:station:WAVCIS:CSI09:1,2009-01-09T21:00:00Z,29.1015,-89.9782,1017.16,11111222 
WAVCIS,ioos:station:WAVCIS:CSI09:1,2009-01-09T22:00:00Z,29.1015,-89.9782,1016.95,11111222 
WAVCIS,ioos:station:WAVCIS:CSI09:1,2009-01-09T23:00:00Z,29.1015,-89.9782,1016.5,11111222 
WAVCIS,ioos:station:WAVCIS:CSI09:1,2009-01-10T00:00:00Z,29.1015,-89.9782,1016.43,11111222 
WAVCIS,ioos:station:WAVCIS:CSI09:1,2009-01-10T01:00:00Z,29.1015,-89.9782,1016.38,11111222 
WAVCIS,ioos:station:WAVCIS:CSI09:1,2009-01-10T02:00:00Z,29.1015,-89.9782,1016.46,11111222 
WAVCIS,ioos:station:WAVCIS:CSI09:1,2009-01-10T03:00:00Z,29.1015,-89.9782,1016.64,11111222 
WAVCIS,ioos:station:WAVCIS:CSI09:1,2009-01-10T04:00:00Z,29.1015,-89.9782,1016.84,11111222 
WAVCIS,ioos:station:WAVCIS:CSI09:1,2009-01-10T05:00:00Z,29.1015,-89.9782,1016.79,11111222 
WAVCIS,ioos:station:WAVCIS:CSI09:1,2009-01-10T06:00:00Z,29.1015,-89.9782,1017.12,11111222 
WAVCIS,ioos:station:WAVCIS:CSI09:1,2009-01-10T07:00:00Z,29.1015,-89.9782,1016.84,11111222 
WAVCIS,ioos:station:WAVCIS:CSI09:1,2009-01-10T08:00:00Z,29.1015,-89.9782,1016.63,11111222 
WAVCIS,ioos:station:WAVCIS:CSI09:1,2009-01-10T09:00:00Z,29.1015,-89.9782,1016.69,11111222 
WAVCIS,ioos:station:WAVCIS:CSI09:1,2009-01-10T10:00:00Z,29.1015,-89.9782,1016.94,11111222 
WAVCIS,ioos:station:WAVCIS:CSI09:1,2009-01-10T11:00:00Z,29.1015,-89.9782,1016.68,11111222 
WAVCIS,ioos:station:WAVCIS:CSI09:1,2009-01-10T12:00:00Z,29.1015,-89.9782,1016.67,11111222 
WAVCIS,ioos:station:WAVCIS:CSI09:1,2009-01-10T13:00:00Z,29.1015,-89.9782,1017.27,11111222 
WAVCIS,ioos:station:WAVCIS:CSI09:1,2009-01-10T14:00:00Z,29.1015,-89.9782,1018.01,11111222 
WAVCIS,ioos:station:WAVCIS:CSI09:1,2009-01-10T15:00:00Z,29.1015,-89.9782,1018.58,11111222 
WAVCIS,ioos:station:WAVCIS:CSI09:1,2009-01-10T16:00:00Z,29.1015,-89.9782,1018.91,11111222 
WAVCIS,ioos:station:WAVCIS:CSI09:1,2009-01-10T17:00:00Z,29.1015,-89.9782,1018.54,11111222 
WAVCIS,ioos:station:WAVCIS:CSI09:1,2009-01-10T18:00:00Z,29.1015,-89.9782,1017.93,11111222 
WAVCIS,ioos:station:WAVCIS:CSI09:1,2009-01-10T19:00:00Z,29.1015,-89.9782,1017.2,11111222 
WAVCIS,ioos:station:WAVCIS:CSI09:1,2009-01-10T20:00:00Z,29.1015,-89.9782,1016.74,11111222 
WAVCIS,ioos:station:WAVCIS:CSI09:1,2009-01-10T21:00:00Z,29.1015,-89.9782,1016.46,11111222 
WAVCIS,ioos:station:WAVCIS:CSI09:1,2009-01-10T22:00:00Z,29.1015,-89.9782,1016.58,11111222 
WAVCIS,ioos:station:WAVCIS:CSI09:1,2009-01-10T23:00:00Z,29.1015,-89.9782,1016.28,11111222 
WAVCIS,ioos:station:WAVCIS:CSI09:1,2009-01-11T00:00:00Z,29.1015,-89.9782,1016.1,11111222 
WAVCIS,ioos:station:WAVCIS:CSI09:1,2009-01-11T01:00:00Z,29.1015,-89.9782,1016.07,11111222 
WAVCIS,ioos:station:WAVCIS:CSI09:1,2009-01-11T02:00:00Z,29.1015,-89.9782,1016.75,11111222 
WAVCIS,ioos:station:WAVCIS:CSI09:1,2009-01-11T03:00:00Z,29.1015,-89.9782,1017.24,11111222 
WAVCIS,ioos:station:WAVCIS:CSI09:1,2009-01-11T04:00:00Z,29.1015,-89.9782,1017.53,11111222 
WAVCIS,ioos:station:WAVCIS:CSI09:1,2009-01-11T05:00:00Z,29.1015,-89.9782,1018.34,11111222 
WAVCIS,ioos:station:WAVCIS:CSI09:1,2009-01-11T06:00:00Z,29.1015,-89.9782,1017.58,11111222 
WAVCIS,ioos:station:WAVCIS:CSI09:1,2009-01-11T07:00:00Z,29.1015,-89.9782,1017.57,11111222 
WAVCIS,ioos:station:WAVCIS:CSI09:1,2009-01-11T08:00:00Z,29.1015,-89.9782,1017.63,11111222 
WAVCIS,ioos:station:WAVCIS:CSI09:1,2009-01-11T09:00:00Z,29.1015,-89.9782,1017.83,11111222 
WAVCIS,ioos:station:WAVCIS:CSI09:1,2009-01-11T10:00:00Z,29.1015,-89.9782,1017.55,11111222 
WAVCIS,ioos:station:WAVCIS:CSI09:1,2009-01-11T11:00:00Z,29.1015,-89.9782,1018.39,11111222 
WAVCIS,ioos:station:WAVCIS:CSI09:1,2009-01-11T12:00:00Z,29.1015,-89.9782,1018.49,11111222 
WAVCIS,ioos:station:WAVCIS:CSI09:1,2009-01-11T13:00:00Z,29.1015,-89.9782,1018.84,11111222 
WAVCIS,ioos:station:WAVCIS:CSI09:1,2009-01-11T14:00:00Z,29.1015,-89.9782,1019.79,11111222 
WAVCIS,ioos:station:WAVCIS:CSI09:1,2009-01-11T15:00:00Z,29.1015,-89.9782,1020.64,11111222 
WAVCIS,ioos:station:WAVCIS:CSI09:1,2009-01-11T16:00:00Z,29.1015,-89.9782,1020.59,11111222 
WAVCIS,ioos:station:WAVCIS:CSI09:1,2009-01-11T17:00:00Z,29.1015,-89.9782,1020.72,11111222 
WAVCIS,ioos:station:WAVCIS:CSI09:1,2009-01-11T18:00:00Z,29.1015,-89.9782,1020.5,11111222 
WAVCIS,ioos:station:WAVCIS:CSI09:1,2009-01-11T19:00:00Z,29.1015,-89.9782,1019.59,11111222 
WAVCIS,ioos:station:WAVCIS:CSI09:1,2009-01-11T20:00:00Z,29.1015,-89.9782,1019.5,11111222 
WAVCIS,ioos:station:WAVCIS:CSI09:1,2009-01-11T21:00:00Z,29.1015,-89.9782,1019.9,11111222 
WAVCIS,ioos:station:WAVCIS:CSI09:1,2009-01-11T22:00:00Z,29.1015,-89.9782,1020.11,11111222 